Theta_e
287 287 287 287 287 287 287 287 287 286 286 286 286 286 286 286 286 286 286 286 287 288 289 289 289 289 287 285 283 281 280 280 279 279 279 280 281 282 282 283 285 286
287 287 287 287 287 287 287 286 286 286 286 286 286 286 286 286 286 285 285 286 287 288 289 289 288 288 286 283 281 280 279 279 279 279 279 279 280 280 280 281 283 284
287 287 287 287 287 287 286 286 286 286 286 286 285 285 285 285 285 285 285 285 286 287 288 288 287 286 284 282 280 280 279 278 278 278 278 278 278 279 279 280 282 283
287 287 287 287 287 286 286 286 286 286 285 285 285 285 285 285 284 284 285 285 286 287 287 287 287 286 284 281 280 279 279 278 277 277 277 278 278 279 280 281 282 283
287 287 287 287 286 286 286 286 286 286 285 285 285 284 284 284 284 284 284 284 285 286 286 286 286 285 284 282 280 279 278 277 276 277 277 277 278 279 281 282 282 282
287 287 287 286 286 286 286 286 286 286 285 285 284 284 283 283 283 283 283 284 284 285 286 286 285 284 282 280 279 279 277 276 276 276 276 277 278 279 279 279 280 280
287 287 287 286 286 286 286 286 286 285 285 284 283 283 282 282 282 283 283 284 284 285 285 285 284 283 280 278 278 278 277 275 275 275 275 276 277 277 277 277 278 280
287 287 287 287 286 286 286 286 285 285 284 283 283 282 282 282 282 282 283 283 284 284 284 284 283 282 279 276 276 277 277 275 274 274 275 275 276 276 277 277 278 279
287 287 287 287 287 286 286 286 285 284 283 282 282 282 281 281 282 282 283 283 284 284 283 283 282 281 279 276 273 274 276 275 273 274 274 275 275 275 276 276 276 278
287 287 287 287 287 286 286 285 284 283 282 282 281 281 281 281 282 282 283 284 284 284 283 283 281 280 279 277 273 272 274 273 272 273 273 274 274 274 275 275 275 277
287 287 287 287 287 286 285 284 283 282 281 281 280 280 281 281 282 283 284 284 284 284 283 282 281 278 277 277 274 272 272 272 272 272 273 273 274 274 274 274 275 276
287 287 287 287 286 285 284 283 282 281 280 280 280 280 281 282 283 283 284 284 283 283 282 282 280 277 276 277 274 272 271 271 271 272 273 273 274 274 274 274 274 275
287 287 286 286 285 284 283 282 281 281 280 280 280 281 282 282 283 284 283 282 282 282 281 280 279 276 275 277 275 271 271 271 271 272 273 273 273 274 274 274 274 274
287 286 286 285 284 283 282 281 281 280 279 280 281 282 282 283 283 283 282 281 281 280 280 278 277 275 275 275 273 270 270 271 272 272 273 273 273 274 274 274 274 274
286 286 285 284 283 282 282 281 280 280 280 281 282 282 282 282 282 281 281 281 280 279 278 276 275 274 274 272 269 269 270 271 271 272 272 273 273 274 274 274 274 274
286 285 284 283 282 282 281 280 279 280 281 281 282 282 282 282 281 281 279 279 278 277 275 273 271 271 271 269 268 270 271 271 272 272 273 273 273 274 274 275 275 275
285 284 283 282 282 281 280 279 280 280 281 282 282 282 282 281 281 280 279 277 275 273 271 269 268 268 269 268 269 271 272 272 273 273 273 274 274 274 275 275 275 275
283 283 283 282 281 280 279 279 280 281 281 282 282 282 281 281 280 279 277 274 271 268 267 266 266 267 268 269 270 271 272 273 274 274 274 274 275 275 275 275 275 276
283 283 282 281 280 279 279 280 280 281 281 281 281 281 281 280 279 277 274 270 267 266 266 265 265 266 267 269 270 271 272 273 274 274 274 275 275 275 276 276 276 276
283 282 281 280 279 279 279 280 280 281 281 281 281 281 280 279 277 274 271 268 266 265 265 265 265 266 267 269 270 272 273 274 275 275 276 276 276 276 276 276 276 276
283 282 280 279 278 279 279 280 280 281 281 281 280 279 278 276 274 271 269 267 266 265 264 265 265 266 267 269 271 272 273 275 275 276 276 277 277 277 277 277 276 276
282 280 279 278 278 279 279 280 280 280 280 280 279 278 276 274 272 270 269 267 266 265 265 265 265 266 267 269 270 272 274 275 276 276 277 278 278 277 277 277 277 277
280 279 278 278 278 278 279 279 280 280 280 279 279 277 276 274 271 270 268 267 266 265 265 265 265 266 267 269 271 272 273 275 276 276 277 277 278 278 278 277 277 277
279 278 277 277 278 278 278 279 279 279 279 278 277 276 275 273 271 270 268 267 266 266 265 265 266 267 268 269 270 272 273 274 275 276 277 277 278 279 279 278 278 277
278 277 277 277 277 278 278 278 279 279 278 278 276 275 274 273 271 269 268 267 266 266 266 266 266 267 268 269 270 272 273 274 275 275 276 276 277 278 279 279 279 279
277 276 276 277 277 277 277 278 278 278 278 277 276 275 274 273 271 269 268 267 267 266 266 266 267 268 268 269 270 271 272 273 274 275 275 276 277 278 279 280 280 280
Wind_Speed
26 27 29 31 33 35 37 38 39 40 41 42 43 43 44 43 43 43 43 43 43 43 42 41 41 41 42 41 39 39 40 41 41 38 32 31 36 39 41 39 37 37
25 27 29 32 34 35 37 38 40 41 42 42 43 44 44 44 44 43 43 44 43 43 43 42 41 41 41 41 39 38 39 40 40 36 33 35 38 39 41 41 39 39
25 27 30 32 34 36 37 39 40 41 42 43 43 44 45 45 44 44 44 44 44 44 43 43 42 41 41 41 40 40 40 40 40 38 37 39 39 39 39 38 37 39
25 28 30 32 35 37 38 40 41 42 43 44 44 44 45 44 44 44 44 44 44 45 44 44 44 43 43 42 41 42 41 40 39 36 35 36 35 34 34 32 35 38
26 28 31 33 35 38 40 41 43 44 44 45 45 44 45 44 44 44 44 44 44 45 45 45 46 45 45 45 43 43 43 41 39 34 32 33 32 33 34 33 36 39
27 30 32 35 37 39 41 43 44 45 46 46 46 45 45 44 45 44 44 45 45 45 45 45 47 47 47 47 46 45 44 43 41 35 33 35 34 35 38 39 41 40
28 31 34 36 38 40 43 44 46 47 47 47 46 46 45 44 45 44 44 45 45 46 47 46 48 48 48 49 49 49 46 44 43 38 35 37 35 35 37 39 39 35
30 33 36 38 40 42 44 46 47 47 47 47 47 46 45 45 45 44 44 46 46 47 48 48 49 49 48 49 51 52 48 44 42 39 37 37 36 36 36 36 37 36
32 36 38 41 43 45 47 48 49 49 47 46 46 46 45 44 44 44 45 46 48 49 49 50 51 51 50 48 49 52 49 43 41 40 39 38 38 39 38 36 40 43
35 38 40 43 45 48 50 50 50 49 47 46 46 46 45 44 44 45 46 48 49 51 50 51 52 51 51 48 47 50 49 44 42 42 41 41 40 40 41 41 43 46
36 40 43 45 47 50 51 51 50 49 47 46 46 45 45 45 45 46 48 49 51 52 51 51 52 51 50 49 47 48 47 44 42 41 42 43 42 42 44 44 44 46
38 41 44 47 49 51 51 50 49 48 47 46 45 45 45 45 45 46 48 50 50 51 50 51 51 50 48 47 47 46 44 42 40 39 40 42 42 42 44 44 43 45
39 42 46 48 50 50 49 49 48 47 46 45 44 44 44 45 46 47 48 49 49 49 49 49 49 48 46 45 45 42 40 39 39 38 39 41 41 42 43 42 41 43
40 43 47 48 49 49 48 47 46 44 44 43 42 43 44 45 47 48 48 47 47 47 47 47 46 45 43 43 41 39 37 37 37 36 36 37 38 40 40 39 39 39
42 44 47 48 48 48 47 45 44 43 42 42 42 43 44 45 46 46 46 46 46 45 44 43 43 42 40 38 36 35 35 37 37 37 36 36 36 37 38 39 39 40
42 45 46 46 46 46 44 43 42 42 42 42 42 43 44 45 46 45 45 45 44 43 41 39 39 39 37 34 32 33 35 37 39 39 40 40 39 38 39 39 40 40
42 44 45 45 45 43 41 41 41 41 42 41 42 43 44 44 45 45 44 43 43 41 39 39 38 37 35 33 32 33 34 36 38 38 39 41 42 42 41 41 39 38
41 43 44 44 42 41 40 40 40 40 41 41 41 43 43 44 44 45 45 43 41 40 38 38 39 37 34 33 33 33 33 35 36 37 38 39 40 41 42 41 40 37
41 42 42 41 39 39 39 39 39 39 40 40 41 42 43 44 45 45 44 41 40 38 37 36 37 36 33 33 33 33 33 34 36 37 39 39 38 40 42 42 40 37
40 40 39 38 37 37 38 38 38 39 39 40 42 43 43 44 44 43 42 39 38 37 36 36 37 34 33 34 35 34 34 34 36 37 39 40 39 41 44 43 41 39
38 37 36 35 35 36 36 36 37 38 38 40 42 42 43 42 41 41 40 38 37 36 36 37 37 34 33 34 34 33 32 33 34 36 38 38 38 40 42 42 41 40
35 35 34 34 34 35 35 35 36 37 38 40 42 42 41 40 39 39 38 38 37 37 37 38 38 35 33 33 32 31 30 31 34 36 37 37 36 36 37 37 38 38
33 32 32 32 33 34 34 34 35 36 38 40 41 41 41 40 39 39 38 38 38 38 38 39 39 36 32 29 28 28 29 30 32 33 33 34 35 35 35 35 37 38
30 30 31 31 31 32 33 33 35 36 37 38 39 40 40 39 40 40 40 39 38 38 38 37 37 34 28 24 24 26 29 31 32 32 33 34 35 35 34 34 34 36
29 28 29 30 30 30 31 32 34 35 37 37 37 38 39 40 40 41 42 41 40 39 38 36 34 31 28 26 27 29 30 31 32 32 32 31 32 34 34 34 33 33
26 26 27 28 29 29 30 31 33 35 36 36 37 37 38 40 40 41 43 43 42 40 38 35 32 31 30 29 30 31 30 30 30 31 31 31 31 34 35 34 34 33
Wind_Direction
321 322 322 321 320 319 319 320 320 319 319 318 317 316 315 314 313 312 311 310 309 308 308 308 306 306 304 301 300 297 294 292 290 289 285 274 268 265 263 259 259 265
321 322 321 320 320 320 321 320 320 320 319 319 317 316 314 313 311 311 310 310 309 309 308 308 306 305 302 299 296 293 290 288 285 282 275 269 270 270 268 264 260 263
323 323 322 322 322 322 322 322 322 321 320 319 318 316 313 312 311 310 310 309 309 309 308 308 306 304 301 298 296 293 290 285 281 277 272 269 269 269 270 269 264 262
326 325 325 325 324 325 324 324 324 323 321 319 317 315 313 311 311 309 309 309 309 309 308 308 306 304 301 298 295 294 291 287 283 279 275 272 272 273 274 273 267 263
329 329 329 328 327 327 326 325 325 323 321 319 317 315 313 312 311 310 310 309 309 308 308 307 306 304 302 298 295 293 289 285 282 275 270 270 269 268 265 262 262 261
333 332 332 331 330 329 328 326 325 322 320 318 316 315 314 313 311 311 311 310 309 308 307 306 305 302 300 296 294 292 288 284 281 272 266 267 267 264 261 262 266 267
336 334 333 332 331 330 328 326 324 322 320 318 316 316 315 313 312 312 312 311 309 308 307 305 303 300 297 294 292 292 289 284 280 272 266 266 265 266 267 271 273 271
336 334 334 332 331 330 328 327 325 323 321 318 317 316 315 314 314 313 313 311 309 307 305 303 301 298 295 292 290 293 291 284 278 272 266 264 264 266 269 273 271 265
336 334 333 332 331 330 329 328 326 324 322 319 317 317 316 316 316 314 313 310 307 305 303 301 299 297 294 291 288 291 293 286 279 272 266 264 264 267 268 270 271 268
335 334 333 332 331 330 329 328 326 324 323 321 320 319 319 318 317 315 312 309 305 303 301 299 297 295 294 292 287 288 291 287 280 273 268 265 265 267 270 271 274 275
334 333 332 332 331 330 329 328 327 326 325 324 323 322 321 320 318 314 310 307 304 302 299 297 296 294 294 293 290 288 288 285 280 274 269 268 268 269 272 275 276 277
333 333 332 331 330 330 329 328 328 327 326 326 325 324 322 320 316 312 309 306 304 302 299 298 297 296 295 293 290 288 287 285 282 278 274 273 273 273 275 277 277 278
332 333 332 331 331 330 330 329 328 328 327 327 326 324 321 318 315 311 309 307 305 304 302 300 298 296 294 292 290 288 288 286 284 281 279 277 278 278 278 279 278 277
332 332 331 332 332 331 330 329 328 328 327 327 327 323 320 317 314 312 310 309 307 305 303 300 298 296 295 293 291 292 292 290 288 285 283 281 281 282 281 282 281 280
332 332 332 333 332 331 330 329 329 329 329 329 327 323 319 317 315 313 313 311 309 307 304 302 300 300 299 295 291 291 291 291 291 290 289 288 287 287 286 285 285 286
332 333 333 333 331 330 330 330 331 331 331 330 327 323 320 318 318 317 316 315 313 311 310 307 304 303 301 295 287 284 285 284 285 285 285 287 287 289 290 290 288 287
333 334 333 332 331 331 331 333 334 334 332 330 327 324 323 322 322 322 321 321 319 317 315 311 307 305 301 293 286 283 281 280 280 278 278 280 282 284 286 288 287 282
334 333 332 331 331 333 335 336 337 335 333 331 328 328 327 328 328 328 328 328 325 319 312 307 304 303 299 292 288 286 283 281 280 279 277 277 278 279 280 282 281 276
332 331 331 331 333 336 338 338 338 337 335 333 332 332 333 333 334 334 332 330 325 318 310 304 303 300 297 295 293 289 286 284 283 282 280 278 277 276 277 279 278 274
330 329 330 332 335 338 339 339 339 339 338 337 336 338 338 338 338 336 333 329 324 318 310 306 307 303 299 298 297 293 289 287 286 285 283 282 281 279 278 278 276 272
328 329 331 335 338 340 341 341 341 342 342 341 341 343 342 341 339 336 334 330 326 320 313 309 310 309 303 301 299 297 294 291 289 287 286 286 285 282 279 276 274 272
328 330 333 337 339 340 342 344 344 345 346 345 345 346 345 343 340 337 335 333 329 325 321 318 318 315 310 306 303 300 299 298 297 294 291 290 288 284 279 275 271 269
330 333 336 339 341 341 344 347 347 348 349 348 348 348 347 345 342 339 337 335 332 330 327 324 322 319 314 309 306 304 303 303 302 300 296 296 295 290 283 280 275 269
332 336 338 340 342 345 348 350 351 351 351 351 350 349 349 347 344 341 340 338 335 333 331 325 321 322 325 322 316 312 309 307 307 305 301 302 305 300 289 283 281 272
334 338 340 341 344 348 352 354 354 353 353 353 352 352 351 349 347 344 341 340 337 336 334 329 325 330 338 333 321 313 310 308 308 308 305 304 309 310 298 287 284 277
336 339 342 344 346 351 356 358 355 354 354 355 355 355 353 352 350 346 342 341 339 336 335 334 334 337 336 326 316 312 312 311 310 310 310 308 309 312 307 297 292 287